Flag for Germany Weather past 2 weeks in Gummersbach, North Rhine-Westphalia, Germany

Now
52 °F

Fog.


Feels Like: 50 °F
Forecast: 65 / 85 °F
Wind: 6 mph from East

Location: Koeln / Bonn

Current Time: Aug 29, 2015 at 5:56:37 AM

Latest Report: Aug 29, 2015 at 4:50 AM


Visibility: N/A

Pressure: 30.18 "Hg

Humidity: 88%

Dew point: 48 °F

Location of GummersbachLocation

Historic Weather in Gummersbach — Graph

°F

Gummersbach temperature yesterday

Maximum temperature yesterday: 70 °F (at 2:50 PM)
Minimum temperature yesterday: 54 °F (at 11:50 PM)
Average temperature yesterday: 61 °F

Past Weeks' High & Low Weather Summary

 TemperatureHumidityPressure
High81 °F (Aug 14, 3:50 PM)94% (Aug 15, 10:50 PM)30.27 "Hg (Aug 15, 10:50 PM)
Low46 °F (Aug 19, 6:50 AM)26% (Aug 23, 3:20 PM)29.56 "Hg (Aug 24, 2:20 PM)
Average64 °F71%29.95 "Hg
* Reported Aug 14 4:20 AM — Aug 29 4:20 AM, Gummersbach, Weather by CustomWeather, © 2015

Note: Actual official high and low records may vary slightly from our data, if they occured in-between our weather recording intervals... More about our weather records

Advertising

Gummersbach weather history for previous 24 hours

 ConditionsComfort  
Time TempWeatherWind HumidityBarometerVisibility
4:20 AM
Sat, Aug 29
52 °FFog.5 mph94%30.18 "HgN/A
3:50 AM52 °FFog.6 mph88%30.18 "HgN/A
3:20 AM52 °FFog.5 mph94%30.18 "HgN/A
2:50 AM52 °FFog.5 mph94%30.18 "HgN/A
2:20 AM52 °FFog.5 mph94%30.18 "HgN/A
1:50 AM52 °FClear.6 mph94%30.18 "Hg10 mi
1:20 AM54 °FFog.5 mph94%30.18 "HgN/A
12:50 AM54 °FFog.6 mph94%30.18 "HgN/A
12:20 AM54 °FFog.5 mph94%30.18 "HgN/A
11:50 PM
Fri, Aug 28
54 °FFog.6 mph94%30.18 "HgN/A
11:20 PM55 °FFog.5 mph88%30.18 "HgN/A
10:50 PM55 °FClear.5 mph88%30.18 "Hg10 mi
10:20 PM57 °FClear.5 mph82%30.15 "Hg10 mi
9:50 PM59 °FClear.3 mph82%30.15 "Hg10 mi
9:20 PM61 °FSunny.2 mph77%30.15 "Hg10 mi
8:50 PM63 °FSunny.2 mph73%30.12 "Hg10 mi
8:20 PM64 °FSunny.3 mph64%30.12 "Hg10 mi
7:50 PM68 °FSunny.6 mph53%30.12 "Hg10 mi
7:20 PM68 °FSunny.7 mph56%30.12 "Hg10 mi
6:50 PM68 °FPartly sunny.2 mph56%30.12 "HgN/A
6:20 PM68 °FPartly sunny.5 mph60%30.09 "HgN/A
5:50 PM68 °FPartly sunny.3 mph60%30.09 "HgN/A
5:20 PM68 °FPartly sunny.2 mph56%30.09 "HgN/A
4:50 PM68 °FBroken clouds.3 mph56%30.09 "HgN/A
4:20 PM68 °FScattered clouds.6 mph60%30.09 "HgN/A
3:50 PM68 °FScattered clouds.5 mph56%30.09 "HgN/A
3:20 PM68 °FPartly sunny.5 mph56%30.09 "HgN/A
2:50 PM70 °FPartly sunny.5 mph57%30.09 "HgN/A
2:20 PM66 °FScattered clouds.5 mph60%30.09 "HgN/A
1:50 PM68 °FPartly sunny.2 mph64%30.07 "HgN/A
1:20 PM64 °FBroken clouds.3 mph68%30.09 "HgN/A
12:50 PM64 °FBroken clouds.3 mph68%30.07 "HgN/A
12:20 PM64 °FBroken clouds.1 mph73%30.07 "HgN/A
11:50 AM63 °FBroken clouds.3 mph68%30.07 "HgN/A
11:20 AM63 °FScattered clouds.1 mph73%30.07 "HgN/A
10:50 AM61 °FScattered clouds.3 mph83%30.07 "HgN/A
10:20 AM61 °FScattered clouds.2 mph83%30.04 "HgN/A
9:50 AM59 °FScattered clouds.3 mph88%30.04 "HgN/A
9:20 AM59 °FScattered clouds.2 mph88%30.04 "HgN/A
8:50 AM57 °FScattered clouds.3 mph94%30.04 "HgN/A
8:20 AM57 °FPartly sunny.3 mph94%30.01 "HgN/A
7:50 AM55 °FPartly sunny.2 mph94%30.01 "Hg5 mi
7:20 AM55 °FPassing clouds.3 mph94%30.01 "Hg5 mi
6:50 AM55 °FPassing clouds.5 mph94%30.01 "Hg5 mi
6:20 AM55 °FPassing clouds.2 mph94%29.98 "Hg6 mi
5:50 AM55 °FPassing clouds.3 mph94%29.98 "HgN/A
5:20 AM55 °FPassing clouds.3 mph94%29.98 "HgN/A
Weather by CustomWeather, © 2015

See weather overviewHow to use our weather pages